Weather History for Leeuwarden, Netherlands

Change the Weather History Date:

Friday, October 11, 2013

  Actual Average Record
Temperature  
Mean Temperature 49 °F -  
Max Temperature 57 °F 52 °F 68 °F (2005)
Min Temperature 41 °F 42 °F 35 °F (2012)
Degree Days  
Heating Degree Days 16    
Moisture  
Dew Point 50 °F    
Average Humidity 87    
Maximum Humidity 100    
Minimum Humidity 77    
Precipitation  
Precipitation 0.08 in - - ()
Sea Level Pressure  
Sea Level Pressure 30.03 in    
Wind  
Wind Speed 15 mph ()    
Max Wind Speed 31 mph    
Max Gust Speed 46 mph    
Visibility 4.8 miles    
Events Rain    
Averages and records for this station are not official NWS values.
T = Trace of Precipitation, MM = Missing Value Source: Averaged Metar Reports

Daily Weather History Graph

Daily Weather History Graph

Search for Another Location

Airport:

Trip Planner

Search our weather history database for the weather conditions in past years. The results will help you decide how hot, cold, wet, or windy it might be!

Date:

Astronomy

Oct. 11, 2013 Rise Set
Actual Time 7:56 AM CEST 6:50 PM CEST
Civil Twilight 7:21 AM CEST 7:24 PM CEST
Nautical Twilight 6:41 AM CEST 8:04 PM CEST
Astronomical Twilight 6:00 AM CEST 8:45 PM CEST
Moon 2:54 PM CEST (10/11) 11:50 PM CEST (10/11)
Length of Visible Light 12h 03m
Length of Day
10h 53m
Waxing Crescent, 44% of the Moon is Illuminated
Oct 11
Waxing Crescent
Oct 12
First Quarter
Oct 19
Full
Oct 27
Last Quarter
Nov 3
New

Hourly Weather History & Observations

Time (CEST) Temp. Windchill Dew Point Humidity Pressure Visibility Wind Dir Wind Speed Gust Speed Precip Events Conditions
12:03 AM 46.4 °F 42.4 °F 42.8 °F 87% 29.89 in 6.2 mi East 8.1 mph - N/A   Mostly Cloudy
12:25 AM 44.6 °F 38.8 °F 42.8 °F 93% 29.89 in 6.2 mi East 11.5 mph - N/A   Mostly Cloudy
12:55 AM 44.6 °F 41.4 °F 42.8 °F 93% 29.92 in 6.2 mi East 5.8 mph - N/A   Scattered Clouds
1:25 AM 42.8 °F 39.3 °F 41.0 °F 93% 29.92 in 6.2 mi East 5.8 mph - N/A   Partly Cloudy
1:55 AM 42.8 °F 37.5 °F 41.0 °F 93% 29.95 in 6.2 mi ENE 9.2 mph - N/A   Partly Cloudy
2:00 AM 42 °F - 41 °F 93% 29.97 in 7 mi ENE 8.9 mph - -   Partly Cloudy
2:25 AM 42.8 °F 38.0 °F 41.0 °F 93% 29.98 in 6.2 mi ENE 8.1 mph - N/A   Scattered Clouds
2:55 AM 42.8 °F 38.6 °F 41.0 °F 93% 29.98 in 6.2 mi ENE 6.9 mph - N/A   Overcast
3:25 AM 41.0 °F 37.1 °F 41.0 °F 100% 30.01 in 5.6 mi ENE 5.8 mph - N/A   Mostly Cloudy
3:55 AM 42.8 °F 38.6 °F 41.0 °F 93% 30.01 in 6.2 mi ENE 6.9 mph - N/A   Overcast
4:25 AM 44.6 °F 40.2 °F 42.8 °F 93% 30.01 in 6.2 mi ENE 8.1 mph - N/A   Overcast
4:55 AM 46.4 °F 42.9 °F 42.8 °F 87% 30.01 in 6.2 mi ENE 6.9 mph - N/A   Mostly Cloudy
5:25 AM 46.4 °F 45.2 °F 44.6 °F 93% 30.04 in 6.2 mi ENE 3.5 mph - N/A   Overcast
5:55 AM 48.2 °F - 44.6 °F 87% 30.04 in 5.6 mi ENE 5.8 mph - N/A   Mostly Cloudy
6:25 AM 48.2 °F - 44.6 °F 87% 30.04 in 6.2 mi ENE 6.9 mph - N/A   Overcast
6:41 AM 48.2 °F - 44.6 °F 87% 30.04 in 4.3 mi NE 4.6 mph - N/A   Light Drizzle
6:45 AM 48.2 °F - 44.6 °F 87% 30.04 in 5.0 mi NE 3.5 mph - N/A Rain Light Rain
6:55 AM 46.4 °F 45.2 °F 44.6 °F 93% 30.04 in 5.6 mi NNE 3.5 mph - N/A Rain Light Rain
7:00 AM 46.4 °F 45.2 °F 44.6 °F 93% 30.04 in 6.2 mi NNE 3.5 mph - N/A   Light Drizzle
7:09 AM 48.2 °F - 46.4 °F 93% 30.04 in 6.2 mi NNE 5.8 mph - N/A   Mostly Cloudy
7:25 AM 48.2 °F - 46.4 °F 93% 30.04 in 3.7 mi NNE 6.9 mph - N/A Rain Light Rain
7:55 AM 48.2 °F - 48.2 °F 100% 30.04 in 3.1 mi North 4.6 mph - N/A   Drizzle
7:56 AM 48.2 °F - 48.2 °F 100% 30.04 in 3.1 mi North 4.6 mph - N/A   Drizzle
8:00 AM 49 °F - 48 °F 97% 30.04 in 3 mi North 4.5 mph - - Rain Light Rain
8:08 AM 50.0 °F - 48.2 °F 94% 30.04 in 3.1 mi North 5.8 mph - N/A Rain Light Rain
8:11 AM 50.0 °F - 48.2 °F 94% 30.04 in 3.7 mi North 4.6 mph - N/A Rain Light Rain
8:14 AM 50.0 °F - 48.2 °F 94% 30.04 in 4.3 mi North 5.8 mph - N/A Rain Rain
8:25 AM 50.0 °F - 48.2 °F 94% 30.01 in 4.3 mi North 9.2 mph - N/A   Drizzle
8:26 AM 50.0 °F - 48.2 °F 94% 30.01 in - NNW 9.2 mph - N/A   Heavy Drizzle
8:37 AM 50.0 °F - 50.0 °F 100% 30.01 in 5.0 mi North 8.1 mph - N/A Rain Light Rain
8:44 AM 51.8 °F - 50.0 °F 94% 30.01 in 5.0 mi North 6.9 mph - N/A Rain Rain
8:55 AM 51.8 °F - 51.8 °F 100% 30.01 in 5.0 mi NNE 10.4 mph - N/A Rain Light Rain
9:06 AM 53.6 °F - 51.8 °F 94% 30.01 in 5.6 mi NE 16.1 mph - N/A Rain Rain
9:25 AM 53.6 °F - 51.8 °F 94% 30.01 in 5.6 mi NE 19.6 mph - N/A Rain Light Rain
9:34 AM 55.4 °F - 51.8 °F 88% 30.01 in 4.3 mi NE 21.9 mph - N/A Rain Rain
9:55 AM 55.4 °F - 53.6 °F 94% 30.01 in 5.0 mi NE 24.2 mph - N/A Rain Light Rain
10:10 AM 55.4 °F - 53.6 °F 94% 30.01 in 4.3 mi NE 24.2 mph - N/A Rain Light Rain
10:14 AM 55.4 °F - 53.6 °F 94% 30.01 in 4.3 mi NE 24.2 mph - N/A Rain Light Rain
10:25 AM 55.4 °F - 53.6 °F 94% 30.01 in 3.7 mi NE 25.3 mph 36.8 mph N/A   Overcast
10:37 AM 55.4 °F - 53.6 °F 94% 30.01 in 3.7 mi NE 24.2 mph - N/A   Mostly Cloudy
10:55 AM 55.4 °F - 53.6 °F 94% 30.01 in 3.7 mi NE 25.3 mph - N/A   Mostly Cloudy
11:25 AM 57.2 °F - 53.6 °F 88% 30.01 in 4.3 mi NE 27.6 mph - N/A   Mostly Cloudy
11:26 AM 57.2 °F - 51.8 °F 82% 30.01 in 4.3 mi NE 27.6 mph - N/A   Mostly Cloudy
11:34 AM 57.2 °F - 53.6 °F 88% 30.01 in 4.3 mi NE 27.6 mph - N/A   Overcast
11:38 AM 57.2 °F - 53.6 °F 88% 30.01 in 4.3 mi NE 27.6 mph - N/A   Overcast
11:42 AM 57.2 °F - 53.6 °F 88% 30.01 in 4.3 mi NE 27.6 mph - N/A   Mostly Cloudy
11:46 AM 57.2 °F - 53.6 °F 88% 30.01 in 3.7 mi NE 27.6 mph 41.4 mph N/A   Mostly Cloudy
11:55 AM 57.2 °F - 53.6 °F 88% 30.01 in 3.7 mi NE 28.8 mph 41.4 mph N/A   Overcast
12:25 PM 57.2 °F - 53.6 °F 88% 30.04 in 3.7 mi NE 29.9 mph - N/A   Overcast
12:55 PM 57.2 °F - 53.6 °F 88% 30.04 in 3.7 mi ENE 29.9 mph - N/A   Overcast
1:25 PM 57.2 °F - 51.8 °F 82% 30.04 in 4.3 mi ENE 27.6 mph - N/A   Overcast
1:40 PM 57.2 °F - 51.8 °F 82% 30.04 in 4.3 mi NE 28.8 mph - N/A   Overcast
1:46 PM 57.2 °F - 51.8 °F 82% 30.04 in 4.3 mi NE 28.8 mph - N/A   Overcast
1:47 PM 57.2 °F - 51.8 °F 82% 30.04 in 5.0 mi NE 28.8 mph 41.4 mph N/A   Overcast
1:55 PM 57.2 °F - 51.8 °F 82% 30.04 in 4.3 mi NE 28.8 mph 41.4 mph N/A   Overcast
2:00 PM 57 °F - 52 °F 79% 30.05 in 4 mi NE 31.3 mph - -   Mist
2:10 PM 57.2 °F - 51.8 °F 82% 30.04 in 5.0 mi NE 28.8 mph - N/A   Mostly Cloudy
2:14 PM 57.2 °F - 51.8 °F 82% 30.04 in 5.0 mi NE 28.8 mph - N/A   Mostly Cloudy
2:18 PM 57.2 °F - 51.8 °F 82% 30.04 in 4.3 mi NE 28.8 mph - N/A   Mostly Cloudy
2:25 PM 57.2 °F - 51.8 °F 82% 30.04 in 5.0 mi NE 28.8 mph 40.3 mph N/A   Overcast
2:39 PM 57.2 °F - 51.8 °F 82% 30.04 in 5.0 mi ENE 31.1 mph 46.0 mph N/A   Overcast
2:46 PM 57.2 °F - 51.8 °F 82% 30.04 in 5.6 mi ENE 28.8 mph 43.7 mph N/A   Overcast
2:55 PM 57.2 °F - 51.8 °F 82% 30.04 in 5.6 mi ENE 27.6 mph 41.4 mph N/A   Overcast
3:25 PM 57.2 °F - 51.8 °F 82% 30.04 in 5.6 mi NE 31.1 mph - N/A   Overcast
3:55 PM 57.2 °F - 50.0 °F 77% 30.04 in 6.2 mi NE 27.6 mph 41.4 mph N/A   Overcast
4:25 PM 57.2 °F - 51.8 °F 82% 30.04 in 5.6 mi NE 25.3 mph - N/A   Overcast
4:55 PM 57.2 °F - 51.8 °F 82% 30.04 in 5.0 mi ENE 24.2 mph - N/A   Overcast
5:12 PM 57.2 °F - 51.8 °F 82% 30.04 in 5.0 mi NE 24.2 mph - N/A   Overcast
5:16 PM 57.2 °F - 51.8 °F 82% 30.04 in 5.0 mi NE 24.2 mph - N/A   Overcast
5:25 PM 57.2 °F - 51.8 °F 82% 30.04 in 5.0 mi NE 25.3 mph - N/A   Overcast
5:33 PM 57.2 °F - 51.8 °F 82% 30.04 in 5.0 mi ENE 25.3 mph - N/A   Overcast
5:46 PM 57.2 °F - 51.8 °F 82% 30.04 in 5.0 mi ENE 25.3 mph 36.8 mph N/A   Overcast
5:47 PM 57.2 °F - 51.8 °F 82% 30.04 in 4.3 mi NE 24.2 mph - N/A   Overcast
5:55 PM 57.2 °F - 51.8 °F 82% 30.04 in 5.0 mi NE 24.2 mph - N/A   Overcast
5:57 PM 57.2 °F - 51.8 °F 82% 30.04 in 4.3 mi NE 25.3 mph - N/A   Overcast
6:04 PM 57.2 °F - 51.8 °F 82% 30.04 in 4.3 mi NE 25.3 mph - N/A   Overcast
6:25 PM 57.2 °F - 51.8 °F 82% 30.04 in 5.0 mi NE 25.3 mph - N/A   Overcast
6:55 PM 57.2 °F - 51.8 °F 82% 30.04 in 5.0 mi NE 24.2 mph - N/A   Overcast
7:09 PM 57.2 °F - 51.8 °F 82% 30.04 in 5.0 mi NE 25.3 mph - N/A   Overcast
7:17 PM 57.2 °F - 51.8 °F 82% 30.04 in 5.0 mi NE 25.3 mph - N/A   Overcast
7:25 PM 57.2 °F - 51.8 °F 82% 30.04 in 5.0 mi NE 26.5 mph 38.0 mph N/A   Overcast
7:27 PM 57.2 °F - 51.8 °F 82% 30.04 in 5.0 mi NE 25.3 mph 38.0 mph N/A   Overcast
7:30 PM 57.2 °F - 51.8 °F 82% 30.04 in 4.3 mi NE 24.2 mph 38.0 mph N/A   Overcast
7:36 PM 57.2 °F - 51.8 °F 82% 30.04 in 5.0 mi NE 25.3 mph 36.8 mph N/A   Overcast
7:40 PM 57.2 °F - 51.8 °F 82% 30.04 in 5.0 mi NE 26.5 mph - N/A   Overcast
7:55 PM 57.2 °F - 51.8 °F 82% 30.04 in 4.3 mi NE 25.3 mph - N/A   Overcast
7:56 PM 57.2 °F - 51.8 °F 82% 30.04 in 5.0 mi NE 25.3 mph - N/A   Overcast
8:00 PM 57 °F - 52 °F 79% 30.05 in 5 mi NE 24.6 mph - -   Mist
8:09 PM 57.2 °F - 51.8 °F 82% 30.04 in 5.0 mi NE 26.5 mph - N/A   Overcast
8:17 PM 57.2 °F - 51.8 °F 82% 30.04 in 5.0 mi NE 28.8 mph - N/A   Overcast
8:25 PM 57.2 °F - 51.8 °F 82% 30.04 in 5.0 mi NE 27.6 mph - N/A   Overcast
8:55 PM 57.2 °F - 51.8 °F 82% 30.04 in 4.3 mi NE 27.6 mph - N/A   Light Drizzle
9:25 PM 57.2 °F - 51.8 °F 82% 30.04 in 4.3 mi ENE 28.8 mph 40.3 mph N/A   Overcast
9:33 PM 57.2 °F - 51.8 °F 82% 30.04 in 4.3 mi NE 28.8 mph 41.4 mph N/A   Overcast
9:37 PM 57.2 °F - 51.8 °F 82% 30.04 in 4.3 mi NE 29.9 mph 41.4 mph N/A   Overcast
9:50 PM 57.2 °F - 51.8 °F 82% 30.04 in 4.3 mi NE 28.8 mph 40.3 mph N/A   Overcast
9:55 PM 57.2 °F - 51.8 °F 82% 30.04 in 4.3 mi NE 27.6 mph - N/A   Overcast
10:09 PM 57.2 °F - 51.8 °F 82% 30.04 in 4.3 mi NE 28.8 mph - N/A   Overcast
10:15 PM 57.2 °F - 51.8 °F 82% 30.04 in 4.3 mi NE 28.8 mph - N/A   Overcast
10:25 PM 57.2 °F - 51.8 °F 82% 30.04 in 4.3 mi NE 28.8 mph 40.3 mph N/A   Overcast
10:29 PM 57.2 °F - 51.8 °F 82% 30.04 in 4.3 mi NE 29.9 mph - N/A   Overcast
10:55 PM 57.2 °F - 51.8 °F 82% 30.04 in 5.0 mi ENE 29.9 mph - N/A   Overcast
10:59 PM 57.2 °F - 51.8 °F 82% 30.04 in 5.0 mi ENE 29.9 mph - N/A   Overcast
11:00 PM 57.2 °F - 51.8 °F 82% 30.04 in 4.3 mi ENE 29.9 mph - N/A   Overcast
11:25 PM 57.2 °F - 51.8 °F 82% 30.04 in 4.3 mi ENE 26.5 mph - N/A   Overcast
11:55 PM 57.2 °F - 51.8 °F 82% 30.04 in 4.3 mi ENE 28.8 mph - N/A   Overcast